Theta_e
323 315 308 313 302 297 292 295 296 295 294 294 297 298 298 291 297 299 293 296 300 301 307 311 321 324 324 324 325 326 328 331 333 335 335 337 339 339 340 340 340 342 343 344 343 342 342 342 343
319 312 312 306 297 292 294 294 294 295 296 294 292 293 291 291 292 291 291 297 300 302 305 311 318 320 321 321 322 322 323 324 326 329 331 332 333 334 335 335 336 338 340 341 341 340 339 337 338
308 310 306 301 294 292 295 294 293 294 295 295 291 290 289 288 293 294 293 296 298 300 303 309 315 317 318 319 319 320 320 320 322 324 324 326 326 327 329 330 330 331 334 336 336 335 334 334 335
302 309 305 297 294 293 296 294 294 293 293 294 291 287 288 292 292 296 296 296 296 298 299 307 313 314 316 317 317 318 318 318 318 319 321 322 321 320 322 324 325 327 327 329 329 329 329 331 333
306 304 298 293 295 292 293 295 294 293 292 291 292 287 287 291 294 295 295 296 294 295 297 302 310 312 313 315 315 315 315 316 316 317 316 316 317 317 318 320 321 322 323 324 325 325 327 327 327
301 302 294 292 293 293 293 295 294 292 292 291 289 286 286 292 292 292 294 294 295 295 297 298 304 308 310 311 312 311 312 313 313 313 313 313 314 314 315 316 318 319 320 321 321 320 321 321 321
300 297 293 293 294 292 294 292 291 291 290 288 290 286 286 289 292 293 293 293 294 295 295 296 297 301 306 307 307 307 308 308 310 309 309 308 308 309 309 311 313 315 315 316 316 316 316 317 317
301 300 294 295 291 292 291 289 289 290 288 290 288 287 285 288 292 292 291 291 291 293 294 293 295 296 296 297 303 302 303 303 304 304 303 302 301 302 304 305 307 309 310 312 312 311 311 312 313
303 296 293 295 294 293 290 289 288 288 288 286 286 286 288 291 291 290 289 290 291 293 292 294 295 296 296 295 294 296 297 297 297 296 298 294 293 294 294 300 302 304 305 307 308 307 307 305 306
299 294 296 294 291 289 291 290 289 288 287 285 285 287 289 290 289 288 287 287 288 289 292 293 294 294 294 293 291 290 290 289 289 289 290 291 290 292 292 294 297 298 299 301 302 304 302 298 296
293 295 293 291 293 291 292 288 288 289 287 288 286 285 287 287 288 287 287 287 287 291 292 292 292 292 292 292 290 289 288 287 287 287 288 289 289 288 288 289 289 290 293 291 292 292 293 294 296
291 289 291 291 292 292 290 292 289 289 286 288 288 287 286 286 286 286 286 287 287 288 288 289 289 289 289 289 288 288 287 286 286 287 287 287 286 286 286 286 287 288 289 289 290 291 292 294 296
288 287 288 289 289 287 291 288 287 285 285 285 286 287 285 285 285 286 287 287 286 286 286 286 287 286 287 287 287 286 286 286 285 286 287 287 286 285 286 285 286 286 287 288 288 289 291 293 293
287 287 286 287 286 286 288 286 287 284 285 284 285 284 284 284 285 284 285 285 286 285 285 285 285 285 285 284 284 284 284 284 285 285 286 286 286 285 285 285 285 285 286 287 287 287 288 291 291
287 283 283 283 283 283 284 283 284 282 285 285 284 283 284 283 285 284 285 285 285 284 284 284 284 284 284 283 284 283 283 284 283 284 285 285 285 284 283 283 283 284 285 285 286 287 289 290 292
283 283 280 282 282 282 282 279 282 281 282 281 280 279 282 283 284 283 285 284 284 283 283 284 286 283 282 282 283 283 283 283 282 283 283 284 285 284 282 282 282 283 284 284 285 285 287 288 289
280 277 279 280 281 280 280 277 281 281 281 280 279 279 281 281 282 282 283 283 283 282 282 282 282 282 282 282 282 282 282 282 282 282 282 283 284 284 282 281 282 282 282 282 283 284 284 285 287
278 278 278 278 279 278 277 278 279 281 281 281 280 279 280 281 281 281 282 282 282 281 281 282 282 282 282 281 281 281 281 281 281 282 283 283 283 283 282 282 282 282 281 281 281 282 284 283 284
279 277 277 276 277 277 276 275 277 278 279 279 278 279 280 280 281 281 281 280 280 280 281 281 281 281 281 280 279 279 279 280 281 282 283 283 283 283 282 281 281 281 280 279 281 281 281 282 282
278 277 275 276 277 276 273 275 276 276 276 279 280 278 279 278 278 280 280 278 279 279 280 280 281 281 281 281 279 279 278 279 279 281 282 283 283 282 282 281 280 280 280 280 280 280 280 281 281
275 276 275 275 275 275 273 274 275 276 277 278 279 280 279 279 278 278 278 277 277 278 278 280 280 281 281 281 280 279 279 278 278 279 279 281 282 282 281 280 280 279 279 279 279 279 279 279 280
276 276 277 276 274 272 272 270 272 275 275 277 280 279 280 279 279 279 278 277 277 277 277 279 280 280 281 281 280 279 277 277 277 278 279 279 281 280 280 280 279 279 279 278 279 280 279 279 278
276 277 276 275 273 271 269 269 272 273 275 277 278 279 279 280 279 279 279 280 278 278 277 278 279 279 280 280 280 278 277 277 278 278 279 279 279 280 280 279 279 278 278 278 278 278 278 279 278
277 276 276 275 272 266 269 270 272 274 276 275 277 278 279 279 279 278 279 279 278 277 277 277 278 279 279 279 279 279 277 277 277 277 278 278 278 278 279 279 278 278 278 278 278 278 278 278 278
276 274 269 267 264 267 269 268 273 276 276 278 278 278 278 278 278 277 277 278 278 277 276 277 278 278 278 278 279 278 278 278 278 278 278 277 277 277 277 278 278 277 278 279 278 278 277 278 277
274 273 270 264 265 269 271 268 275 276 276 277 278 278 278 278 278 277 278 279 279 278 277 278 278 278 278 278 278 278 278 278 278 278 277 277 277 277 278 278 278 278 278 278 278 277 277 277 277
273 271 273 266 263 265 270 273 277 277 276 276 277 277 277 277 278 278 277 278 278 278 278 278 278 278 278 278 278 278 278 278 278 278 278 277 277 279 278 278 278 278 278 278 277 277 276 276 277
272 274 270 268 262 262 268 268 273 275 276 276 276 276 277 277 278 279 278 278 278 278 278 278 278 279 278 278 278 278 278 278 278 278 277 278 278 279 278 278 278 278 278 278 277 277 277 276 277
270 269 269 271 268 265 264 270 274 278 279 278 277 277 277 277 278 278 279 278 278 278 278 278 278 278 278 278 278 278 278 278 278 278 278 278 278 278 278 278 278 278 278 277 277 277 277 276 276
269 270 271 268 266 265 267 269 276 276 278 278 278 278 276 277 278 278 278 279 278 277 277 278 278 278 279 279 278 278 278 278 278 278 278 279 278 278 278 278 278 278 278 277 277 276 277 276 276
Wind_Speed
9 8 1 5 5 5 2 1 1 1 2 3 3 1 5 5 1 3 3 5 5 4 4 7 11 12 13 14 15 14 14 15 14 15 15 15 17 17 16 15 15 14 13 12 12 12 13 12 12
5 3 4 3 5 2 4 2 2 0 5 8 6 3 5 3 3 5 3 4 5 5 4 5 11 12 13 14 14 15 15 14 13 13 14 15 15 16 16 17 17 16 14 14 15 15 14 12 11
3 1 4 4 3 4 4 3 5 1 8 2 5 5 2 2 2 5 4 6 6 5 4 5 10 11 12 13 14 14 14 14 13 12 12 13 14 15 15 15 15 15 15 15 14 14 13 12 10
2 4 5 5 4 2 3 5 5 6 4 5 4 6 1 3 3 5 7 6 6 4 4 5 10 12 13 13 14 15 14 14 13 12 13 13 13 14 12 12 12 11 11 12 12 10 10 9 11
4 3 4 2 3 2 2 5 7 4 4 2 2 5 3 2 7 8 6 6 6 4 5 5 10 12 13 13 15 15 15 14 14 14 14 13 13 14 13 12 13 11 11 11 11 12 10 11 11
4 3 4 3 3 1 2 5 6 3 4 4 6 5 4 6 5 5 7 6 5 5 5 5 9 12 14 14 16 16 16 15 15 14 14 14 14 14 14 14 14 13 13 12 12 12 11 11 11
6 4 3 3 4 2 4 2 4 5 4 2 4 5 1 4 6 6 6 7 5 6 6 4 5 9 13 14 15 16 15 15 15 15 14 14 15 15 15 15 14 13 13 12 12 12 11 10 11
5 4 2 3 5 5 2 3 1 2 2 2 3 4 5 6 8 8 7 7 7 5 5 5 5 5 7 7 15 15 16 15 14 14 15 15 15 15 16 15 15 14 13 12 12 12 11 11 12
3 4 2 4 5 3 3 4 1 1 6 4 4 3 4 13 10 8 5 5 4 6 6 6 5 5 6 8 10 12 16 16 14 13 15 10 6 8 11 14 14 15 14 14 13 13 13 12 13
4 4 7 1 1 3 3 2 7 3 3 3 3 5 6 9 9 8 5 5 5 5 6 6 7 7 6 8 7 8 8 5 7 7 7 5 7 7 9 12 16 15 16 15 14 14 14 11 5
2 4 4 2 1 2 4 3 2 7 2 4 6 8 6 7 7 8 6 6 6 3 4 5 5 6 6 6 5 4 4 5 5 7 6 5 6 5 5 4 5 6 12 6 8 8 6 8 6
4 2 1 2 2 2 4 6 3 2 2 3 4 10 6 8 7 8 7 6 6 5 4 5 6 7 7 5 5 5 4 5 4 5 7 5 4 5 6 4 5 6 6 7 7 5 6 8 10
3 3 4 3 5 4 2 2 1 3 3 6 9 8 9 7 7 6 7 6 6 5 4 5 6 5 4 6 5 5 5 4 4 5 7 5 6 6 5 5 5 6 6 7 6 6 6 8 10
3 5 3 4 3 3 2 0 1 3 4 8 8 7 6 8 7 5 6 6 5 6 5 5 6 6 6 6 6 4 4 4 4 4 6 7 5 4 5 5 6 6 6 6 5 5 5 6 7
6 5 2 2 2 2 1 4 7 5 5 8 6 6 5 6 6 7 7 6 7 5 6 6 6 6 7 7 6 4 4 5 4 4 6 7 6 6 5 5 6 6 6 7 6 6 6 7 7
3 4 3 1 0 1 3 7 3 7 9 8 7 6 7 6 7 6 6 7 6 6 6 5 6 6 7 6 4 4 4 4 4 4 4 7 7 7 5 5 6 5 5 5 5 5 5 6 7
3 4 4 2 1 2 4 5 2 5 6 7 7 8 7 7 5 5 6 7 7 7 7 7 6 7 7 6 5 5 6 4 4 4 4 6 7 7 5 5 5 6 5 6 4 5 4 4 5
7 4 4 5 4 3 3 9 4 6 7 9 8 8 8 8 9 7 8 7 7 7 7 7 5 7 7 5 4 4 4 4 4 4 4 6 5 7 6 6 7 6 5 6 4 6 6 4 4
5 3 4 0 1 1 5 6 9 7 6 9 9 9 9 9 6 7 7 7 7 6 7 7 7 6 5 2 2 3 3 2 3 4 6 6 5 7 7 5 6 6 7 6 6 3 6 7 4
3 4 2 1 0 1 3 10 8 5 7 10 11 10 10 6 7 8 8 7 8 8 7 6 6 6 4 2 2 3 2 2 3 2 4 5 6 6 7 5 5 6 5 8 8 6 3 4 6
1 5 4 1 1 1 4 8 3 2 3 4 6 6 6 11 11 9 9 9 8 8 9 8 8 7 5 5 4 4 4 2 2 2 2 3 5 5 6 6 5 6 5 5 6 5 6 3 5
5 3 4 5 3 4 2 6 5 4 4 4 8 8 8 9 8 7 9 9 9 9 7 7 7 7 6 8 5 6 4 3 2 2 2 3 5 5 6 6 5 5 4 6 5 5 5 3 3
3 2 4 3 4 2 1 2 8 1 6 7 8 9 9 9 10 12 14 13 8 8 8 7 7 6 5 6 6 5 4 2 2 2 5 4 2 5 5 5 5 5 4 4 5 5 5 4 3
7 6 6 4 3 3 3 5 7 8 9 5 4 7 9 9 9 9 7 8 7 7 7 7 8 7 7 7 7 7 8 7 5 4 3 3 1 2 3 5 4 4 4 4 4 4 5 4 4
2 5 4 4 4 7 1 2 12 6 6 8 12 9 8 7 9 9 11 11 9 11 9 8 8 7 7 7 6 7 7 7 8 6 4 4 2 1 1 2 3 2 3 3 3 4 4 4 3
5 5 8 10 5 4 2 9 11 5 2 2 7 8 7 8 7 9 11 11 11 12 11 10 10 8 8 8 8 6 7 4 4 5 4 4 4 4 4 4 3 3 3 3 3 2 2 3 3
6 6 3 9 2 4 5 8 10 5 5 4 8 8 10 8 7 9 8 8 9 10 12 13 10 8 8 8 6 7 6 6 6 6 5 4 4 4 5 5 4 3 3 2 2 2 2 1 1
4 2 4 3 4 5 5 7 8 7 13 9 9 10 9 7 7 7 7 7 6 7 7 7 8 11 8 7 6 5 6 6 6 5 6 5 5 5 5 6 5 4 3 2 2 1 0 0 0
2 2 2 2 5 7 2 10 10 14 16 20 13 11 10 10 9 7 6 7 7 6 7 9 9 9 9 8 7 7 6 6 5 5 5 5 4 4 5 5 5 5 5 4 3 3 3 3 3
2 5 7 6 7 3 2 11 2 6 8 11 13 11 8 7 8 6 5 6 7 8 8 10 9 9 10 9 8 8 6 6 7 6 6 5 5 4 5 5 5 5 5 4 5 5 3 5 5
Wind_Direction
323 310 57 38 59 67 270 303 46 59 73 15 3 34 120 50 104 184 241 116 104 63 19 360 24 31 33 31 31 28 26 30 19 22 23 23 24 28 30 27 19 18 17 29 36 28 26 17 19
326 317 39 90 94 92 262 161 101 309 137 141 78 360 31 97 107 133 121 110 82 71 41 19 35 38 41 39 37 34 32 29 22 23 23 27 23 24 23 24 18 17 18 20 28 26 13 9 358
295 334 85 95 111 188 205 146 142 76 155 133 98 57 52 105 57 127 108 122 95 57 26 41 46 46 45 45 41 39 35 31 28 28 29 30 26 23 17 19 12 9 14 18 22 19 8 2 1
0 10 33 94 187 242 208 158 142 135 110 70 120 67 52 341 146 126 128 109 96 78 30 40 54 50 49 46 44 41 36 34 30 32 35 32 31 25 21 20 15 11 9 11 12 15 2 4 15
28 52 84 114 232 216 231 141 151 143 133 89 172 178 119 23 110 113 116 108 97 70 42 27 65 52 52 48 46 38 37 35 34 34 31 27 28 25 23 26 19 22 19 19 18 23 17 19 18
38 88 75 186 231 220 90 149 133 115 140 133 82 123 172 138 122 135 115 100 103 90 55 35 53 61 53 48 47 40 36 34 37 37 33 31 28 29 26 27 21 22 22 23 20 17 21 24 24
121 87 194 194 204 186 184 82 121 134 117 80 161 117 107 175 140 115 99 84 46 60 58 37 45 67 56 57 51 46 41 37 36 40 38 38 36 30 29 22 24 23 23 19 22 22 22 25 30
112 100 172 210 184 218 110 66 2 107 133 96 23 181 197 191 137 104 79 75 52 30 47 35 31 77 76 50 54 51 46 39 39 41 40 37 35 33 24 24 24 23 22 20 22 25 24 26 31
122 73 208 209 167 208 158 136 17 33 107 61 13 8 317 126 115 103 100 84 63 47 26 15 39 33 85 67 53 51 45 39 32 32 38 31 19 29 18 20 24 28 22 25 20 23 23 23 25
110 139 211 121 133 185 162 165 156 144 103 83 54 26 86 116 122 130 125 90 55 35 49 17 36 50 49 64 53 47 41 27 22 16 21 21 25 28 30 15 20 20 22 21 19 21 20 18 8
113 183 160 128 26 317 141 112 132 129 218 182 176 165 144 134 137 135 105 122 131 90 49 34 62 62 61 58 53 54 40 23 10 10 15 17 26 15 23 6 358 2 10 8 2 1 9 10 24
110 72 100 129 341 175 168 119 129 198 88 324 152 150 141 146 143 140 135 133 117 99 77 45 52 59 57 65 57 43 46 33 16 10 13 24 24 16 18 9 1 6 2 357 5 358 2 26 50
103 145 74 86 60 57 142 92 185 169 46 69 111 130 144 140 132 121 122 117 121 104 87 72 69 69 71 73 64 50 39 36 18 13 17 22 27 24 5 5 12 12 2 6 1 2 14 32 57
98 102 90 43 57 41 161 134 72 119 119 94 114 133 141 148 153 123 135 144 139 126 106 94 89 86 80 71 64 62 50 27 30 22 18 27 26 20 16 13 15 10 7 4 0 1 11 30 60
134 85 36 16 10 97 73 282 230 138 135 128 143 159 167 174 163 169 167 156 151 141 132 117 105 89 80 75 69 53 44 39 33 26 22 26 31 22 19 17 20 6 357 7 13 17 30 46 55
78 74 152 180 141 133 131 264 150 163 142 164 170 178 180 191 197 187 178 157 149 128 130 111 98 93 89 85 74 62 48 42 36 29 20 30 31 30 25 26 20 355 6 19 29 16 33 45 54
352 202 191 236 168 142 154 258 91 161 165 183 196 200 204 212 212 203 172 155 155 149 134 119 117 116 111 100 87 75 64 51 43 36 31 28 32 32 36 26 15 1 12 23 27 38 36 40 43
191 212 217 204 198 160 184 257 246 196 189 205 203 211 212 213 213 188 172 166 159 153 145 142 139 133 125 112 102 77 66 51 39 42 41 35 34 32 30 29 24 13 26 26 21 46 42 52 25
136 143 169 49 92 154 231 270 262 231 210 218 218 212 214 216 207 183 182 169 152 155 154 161 150 154 137 124 109 73 80 46 43 39 41 41 38 40 35 34 26 18 35 20 18 30 47 31 1
145 137 188 326 100 140 12 279 261 195 220 202 204 212 210 181 183 182 178 176 173 167 175 172 173 167 180 154 150 133 147 88 87 61 46 46 40 34 58 43 36 29 33 33 28 25 48 48 16
66 166 177 198 78 80 350 296 237 215 220 179 214 201 184 190 187 187 185 188 175 180 182 180 182 179 174 157 118 87 81 66 59 42 51 41 61 51 49 43 42 36 36 45 34 28 45 77 27
177 165 121 118 104 226 30 263 272 217 221 208 205 202 202 189 182 179 182 188 190 198 181 179 180 178 174 163 147 154 153 155 181 143 125 72 69 70 65 60 53 51 37 43 38 35 39 64 48
150 117 96 85 88 5 239 84 262 70 232 227 206 208 213 198 188 186 191 192 188 176 185 183 177 184 174 174 165 158 146 142 137 132 133 116 82 88 83 74 63 61 54 53 50 42 47 48 79
149 78 55 62 71 3 214 155 269 193 196 177 192 201 203 195 195 197 176 161 182 174 176 179 179 194 183 180 180 177 167 161 151 161 158 153 154 102 101 101 96 82 74 64 62 60 59 57 59
66 104 32 3 4 221 2 130 246 248 223 187 182 195 196 189 186 182 177 182 181 184 184 178 181 197 191 185 183 183 177 173 174 168 171 164 170 155 163 123 103 85 90 83 83 74 67 63 73
188 164 157 192 196 208 350 230 250 224 235 176 174 180 197 210 197 193 191 188 189 186 183 179 177 190 186 185 191 189 182 182 186 178 174 181 178 173 174 158 143 128 101 86 81 74 72 72 81
192 206 150 104 35 51 212 282 295 193 221 193 180 177 205 214 208 202 185 191 186 184 188 187 180 189 187 188 182 187 185 185 189 190 185 181 179 178 173 175 166 159 153 140 115 114 99 86 72
146 230 97 360 133 252 269 281 239 210 206 202 205 202 208 210 203 205 195 195 190 188 179 172 184 191 189 179 187 191 190 192 190 185 193 196 199 192 172 179 193 183 196 184 191 211 201 300 298
136 212 37 126 148 166 185 256 215 208 195 194 195 198 191 195 194 191 198 192 192 173 173 185 183 180 178 181 183 184 195 199 190 195 210 210 201 203 198 206 200 199 208 215 228 243 249 252 268
146 200 171 138 223 239 165 267 245 220 198 175 194 189 187 190 186 185 185 180 189 193 183 191 191 188 197 185 173 189 182 186 190 202 210 197 216 214 220 225 224 220 224 226 229 243 249 248 255